Location: Eimen
(51.8766°N, 9.7806°E)
Time: 11:27:35
(UTC+00:00)

IDEFIX/ARIANE 42P - Pass Details

Date: 23 May 2024
Orbit: 783 x 799 km, 98.5° (Epoch: 23 June)

Event Time Altitude Azimuth Distance (km) Brightness Sun altitude
Rises 01:16:33 0° 15° (NNE) 3,319 7.5 -13.0°
Reaches altitude 10° 01:18:53 10° 16° (NNE) 2,385 6.4 -12.8°
Maximum altitude 01:24:11 83° 104° (ESE) 812 2.6 -12.4°
Enters shadow 01:28:35 15° 193° (SSW) 2,034 4.1 -12.0°
